Location: Palombina Nuova
(43.6167°N, 13.4000°E)
Time: 18:14:03
(UTC+00:00)

SL-16 R/B - Pass Details

Date: 17 February 2020
Orbit: 843 x 847 km, 71.0° (Epoch: 27 March)

Event Time Altitude Azimuth Distance (km) Brightness Sun altitude
Exits shadow 04:41:46 23° 278° (W) 1,723 3.2 -15.3°
Maximum altitude 04:43:35 27° 308° (NW) 1,564 3.2 -15.0°
Drops below altitude 10° 04:48:23 10° 5° (N) 2,476 4.7 -14.1°
Sets 04:51:13 0° 18° (NNE) 3,414 5.5 -13.6°
